This is the latest recevied weather packets stored in our database for station/object KM6YFK-13. If no packets are shown the sender has not sent any weather packets the latest 10 day(s).
| Time | Temp. | Humidity | Pressure | Rain* | Wind** | Luminosity | Snow |
|---|---|---|---|---|---|---|---|
| 1777831407 | 23.33° C | 54% | 1018.7 hPa | 0 mm | - | 994 W/m² | - |
| 1777831107 | 22.78° C | 58% | 1018.8 hPa | 0 mm | - | 1017 W/m² | - |
| 1777830808 | 23.33° C | 55% | 1018.9 hPa | 0 mm | - | 1020 W/m² | - |
| 1777830508 | 23.33° C | 58% | 1018.9 hPa | 0 mm | - | 1061 W/m² | - |
| 1777830208 | 23.33° C | 54% | 1018.9 hPa | 0 mm | - | 1020 W/m² | - |
| 1777829908 | 22.78° C | 56% | 1018.9 hPa | 0 mm | - | 1032 W/m² | - |
| 1777829608 | 22.78° C | 56% | 1019 hPa | 0 mm | - | 1057 W/m² | - |
| 1777829307 | 22.22° C | 59% | 1018.9 hPa | 0 mm | - | 1099 W/m² | - |
| 1777829007 | 22.22° C | 59% | 1018.9 hPa | 0 mm | - | 471 W/m² | - |
| 1777828707 | 22.78° C | 57% | 1019 hPa | 0 mm | - | 832 W/m² | - |
| 1777828408 | 22.78° C | 58% | 1019 hPa | 0 mm | - | 1050 W/m² | - |
| 1777828108 | 22.78° C | 59% | 1019.1 hPa | 0 mm | - | 1080 W/m² | - |
| 1777827807 | 22.78° C | 60% | 1019.1 hPa | 0 mm | - | 1089 W/m² | - |
| 1777827508 | 22.78° C | 59% | 1019.2 hPa | 0 mm | - | 988 W/m² | - |
| 1777827208 | 22.78° C | 63% | 1019.2 hPa | 0 mm | - | 944 W/m² | - |
| 1777826907 | 22.78° C | 61% | 1019.1 hPa | 0 mm | - | 587 W/m² | - |
| 1777826608 | 22.78° C | 60% | 1019.1 hPa | 0 mm | - | 1116 W/m² | - |
| 1777826308 | 23.33° C | 59% | 1019.2 hPa | 0 mm | - | 896 W/m² | - |
| 1777826007 | 22.78° C | 60% | 1019.2 hPa | 0 mm | - | 1071 W/m² | - |
| 1777825710 | 22.78° C | 61% | 1019.3 hPa | 0 mm | - | 1052 W/m² | - |
| 1777825407 | 22.78° C | 63% | 1019.3 hPa | 0 mm | - | 1049 W/m² | - |
| 1777825108 | 22.22° C | 61% | 1019.3 hPa | 0 mm | - | 1034 W/m² | - |
| 1777824807 | 22.22° C | 62% | 1019.2 hPa | 0 mm | - | 586 W/m² | - |
| 1777824508 | 22.22° C | 63% | 1019.1 hPa | 0 mm | - | 703 W/m² | - |
| 1777824208 | 22.22° C | 63% | 1019.1 hPa | 0 mm | - | 1001 W/m² | - |
* Rain latest hour (hover to see other rain measurements)
** Current wind speed in m/s (hover to see current wind gust speed)